DW2168 Weather Reports


time (UTC)temp
F
wind
direction
speed
knots
gust
knots
rain 1hr
in
rain 24hr
in
rain mn
in
humidity
%
barometer
mb
20260502152006 54 1 1.7 4.3 0.00 0.00 0.00 55 1021.8
20260502151006 54 1 1.7 4.3 0.00 0.00 0.00 56 1021.7
20260502123006 44 0 0.0 0.0 0.00 0.00 0.00 71 1020.7
20260502114006 46 0 0.0 0.0 0.00 0.00 0.00 69 1020.4
20260502113006 46 1 0.0 1.7 0.00 0.00 0.00 69 1020.4
20260502112005 45 0 0.0 0.0 0.00 0.00 0.00 70 1020.3
20260502111005 47 0 0.0 0.0 0.00 0.00 0.00 66 1020.2
20260502110006 47 1 0.0 4.3 0.00 0.00 0.00 66 1020.1
20260502105006 47 1 0.0 3.5 0.00 0.00 0.00 65 1020.1
20260502104006 48 1 1.7 4.3 0.00 0.00 0.00 64 1019.9
20260502103006 47 1 1.7 7.0 0.00 0.00 0.00 66 1019.8
20260502101006 47 1 0.0 4.3 0.00 0.00 0.00 66 1019.8
20260502091006 49 1 0.9 3.5 0.00 0.00 0.00 61 1019.4
20260502070010 50 359 2.6 5.2 0.00 0.00 0.00 62 1018.9
20260502065005 50 1 1.7 5.2 0.00 0.00 0.00 61 1018.8
20260502064006 51 1 0.9 3.5 0.00 0.00 0.00 59 1018.6
20260502061005 52 1 2.6 4.3 0.00 0.00 0.00 57 1018.3
20260502060005 51 1 1.7 4.3 0.00 0.00 0.00 58 1018.4
20260502054006 54 1 1.7 7.0 0.00 0.00 0.00 53 1018.2
20260502053006 53 359 1.7 5.2 0.00 0.00 0.00 55 1018.1
20260502052006 54 1 1.7 4.3 0.00 0.00 0.00 53 1018.0
20260502051006 55 1 0.9 3.5 0.00 0.00 0.00 52 1017.9
20260502050005 55 1 0.9 2.6 0.00 0.00 0.00 53 1017.8
20260502045005 56 1 1.7 5.2 0.00 0.00 0.00 51 1017.7
20260502043006 56 1 0.9 3.5 0.00 0.00 0.00 51 1017.6
20260502041005 57 1 0.0 2.6 0.00 0.00 0.00 50 1017.4
20260502040005 58 1 0.0 1.7 0.00 0.00 0.00 49 1017.3
20260502035007 57 1 0.0 2.6 0.00 0.00 0.00 50 1017.2
20260502034007 58 0 0.0 0.0 0.00 0.00 0.00 51 1017.0
20260502033007 60 0 0.0 0.0 0.00 0.00 0.00 49 1017.1
20260502032007 62 0 0.0 0.0 0.00 0.00 0.00 44 1017.0
20260502031007 63 0 0.0 0.0 0.00 0.00 0.00 44 1016.9
20260502030006 65 1 0.0 1.7 0.00 0.00 0.00 41 1016.9
20260502025006 66 1 0.0 1.7 0.00 0.00 0.00 38 1016.6
20260502024007 66 1 0.0 2.6 0.00 0.00 0.00 37 1016.6
20260502023007 67 1 0.0 1.7 0.00 0.00 0.00 37 1016.5
20260502022007 68 1 0.9 4.3 0.00 0.00 0.00 36 1016.5
20260502020007 69 1 0.9 3.5 0.00 0.00 0.00 36 1016.5
20260502015007 70 1 0.9 2.6 0.00 0.00 0.00 35 1016.4
20260502014006 69 0 0.0 0.0 0.00 0.00 0.00 34 1016.4
20260502013007 69 1 0.0 0.9 0.00 0.00 0.00 34 1016.4
20260502012007 69 0 0.0 0.0 0.00 0.00 0.00 35 1016.5
20260502011007 69 1 0.0 2.6 0.00 0.00 0.00 37 1016.6
20260502010007 69 1 0.0 1.7 0.00 0.00 0.00 36 1016.6
20260502004007 69 1 0.0 2.6 0.00 0.00 0.00 36 1016.7
20260502003007 69 1 0.9 2.6 0.00 0.00 0.00 36 1016.7
20260502002007 69 1 1.7 3.5 0.00 0.00 0.00 36 1016.5
20260502001007 69 1 1.7 3.5 0.00 0.00 0.00 38 1016.5
20260502000006 68 1 1.7 5.2 0.00 0.00 0.00 36 1016.6
20260501234007 68 1 0.9 4.3 0.00 0.00 0.00 35 1016.6
20260501233007 69 1 0.9 3.5 0.00 0.00 0.00 36 1016.7
20260501232007 69 1 0.0 2.6 0.00 0.00 0.00 34 1016.7
20260501231007 69 1 0.0 3.5 0.00 0.00 0.00 36 1016.8
20260501230007 69 0 0.0 0.0 0.00 0.00 0.00 35 1016.9
20260501225007 69 0 0.0 0.0 0.00 0.00 0.00 33 1017.0
20260501224007 69 1 0.9 2.6 0.00 0.00 0.00 34 1017.0
20260501223007 69 1 0.0 2.6 0.00 0.00 0.00 36 1017.2
20260501222007 69 1 0.0 2.6 0.00 0.00 0.00 35 1017.2
20260501221007 69 1 0.0 0.9 0.00 0.00 0.00 35 1017.3
20260501220007 69 1 0.0 2.6 0.00 0.00 0.00 34 1017.5
20260501213008 69 1 0.9 5.2 0.00 0.00 0.00 35 1017.6
20260501212007 69 1 0.9 3.5 0.00 0.00 0.00 35 1017.8
20260501211007 68 1 0.0 2.6 0.00 0.00 0.00 35 1017.7
20260501210007 67 1 0.0 1.7 0.00 0.00 0.00 37 1017.9
20260501204006 67 1 0.0 2.6 0.00 0.00 0.00 35 1017.9
20260501202007 67 1 0.9 3.5 0.00 0.00 0.00 38 1018.1
20260501201007 67 1 0.9 3.5 0.00 0.00 0.00 37 1018.0
20260501200007 68 1 1.7 4.3 0.00 0.00 0.00 36 1018.1
20260501195007 69 359 0.9 3.5 0.00 0.00 0.00 36 1018.1
20260501194007 67 353 0.9 4.3 0.00 0.00 0.00 37 1018.3
20260501193007 67 1 0.9 4.3 0.00 0.00 0.00 39 1018.3
20260501192007 66 1 0.9 3.5 0.00 0.00 0.00 40 1018.4
20260501191007 65 357 0.9 4.3 0.00 0.00 0.00 40 1018.5
20260501190007 64 2 0.9 4.3 0.00 0.00 0.00 42 1018.7
20260501185007 64 4 1.7 5.2 0.00 0.00 0.00 42 1018.7
20260501184007 63 2 0.9 4.3 0.00 0.00 0.00 43 1018.8
20260501183007 62 1 0.9 3.5 0.00 0.00 0.00 43 1018.9
20260501182007 62 3 0.9 3.5 0.00 0.00 0.00 44 1019.0
20260501181007 61 1 1.7 5.2 0.00 0.00 0.00 46 1019.1
20260501175007 61 1 2.6 5.2 0.00 0.00 0.00 46 1019.2
20260501174007 61 1 1.7 5.2 0.00 0.00 0.00 46 1019.2
20260501171007 58 1 0.9 3.5 0.00 0.00 0.00 49 1019.3
20260501170007 57 1 1.7 4.3 0.00 0.00 0.00 50 1019.4
20260501164007 57 1 0.9 4.3 0.00 0.00 0.00 52 1019.5
20260501163007 56 1 0.9 3.5 0.00 0.00 0.00 52 1019.6
20260501162007 55 1 0.9 2.6 0.00 0.00 0.00 54 1019.6